Change the Weather History Date:

Saturday, September 27, 2014

  Actual Average Record
Temperature  
Mean Temperature 66 °F 68 °F  
Max Temperature 76 °F 78 °F 94 °F (1998)
Min Temperature 55 °F 57 °F 41 °F (1947)
Degree Days  
Heating Degree Days 0 2  
Month to date heating degree days 10 12  
Since 1 July heating degree days 10 13  
Cooling Degree Days 1 4  
Month to date cooling degree days 226 214  
Year to date cooling degree days 1584 1655  
Growing Degree Days 15 (Base 50)    
Moisture  
Dew Point 58 °F    
Average Humidity 74    
Maximum Humidity 93    
Minimum Humidity 54    
Precipitation  
Precipitation 0.00 in 0.13 in 2.68 in (1953)
Month to date precipitation 5.90 3.97  
Year to date precipitation 44.31 33.51  
Sea Level Pressure  
Sea Level Pressure 30.20 in    
Wind  
Wind Speed 4 mph (NE)    
Max Wind Speed 13 mph    
Max Gust Speed 17 mph    
Visibility 9 miles    
Events      
T = Trace of Precipitation, MM = Missing Value Source: NWS Daily Summary

Daily Weather History Graph

Daily Weather History Graph

Search for Another Location

Airport or City:

Trip Planner

Search our weather history database for the weather conditions in past years. The results will help you decide how hot, cold, wet, or windy it might be!

Date:

Astronomy

Sep. 27, 2014 Rise Set
Actual Time 7:06 AM EDT 7:04 PM EDT
Civil Twilight 6:41 AM EDT 7:30 PM EDT
Nautical Twilight 6:11 AM EDT 7:59 PM EDT
Astronomical Twilight 5:41 AM EDT 8:29 PM EDT
Moon 10:13 AM EDT (9/27) 9:09 PM EDT (9/27)
Length of Visible Light 12h 48m
Length of Day
11h 57m
Waxing Crescent, 11% of the Moon is Illuminated
Sep 27
Waxing Crescent
Oct 1
First Quarter
Oct 8
Full
Oct 15
Last Quarter
Oct 23
New

Hourly Weather History & Observations

Time (EDT) Temp. Dew Point Humidity Pressure Visibility Wind Dir Wind Speed Gust Speed Precip Events Conditions
12:51 AM 59.0 °F 57.0 °F 93% 30.21 in 5.0 mi Calm Calm - N/A   Mostly Cloudy
1:51 AM 60.1 °F 57.9 °F 93% 30.20 in 6.0 mi ENE 5.8 mph - N/A   Mostly Cloudy
2:51 AM 61.0 °F 57.9 °F 90% 30.19 in 10.0 mi NNE 3.5 mph - N/A   Mostly Cloudy
3:51 AM 60.1 °F 57.0 °F 90% 30.18 in 8.0 mi NNE 4.6 mph - N/A   Mostly Cloudy
4:51 AM 57.9 °F 55.9 °F 93% 30.19 in 6.0 mi Calm Calm - N/A   Mostly Cloudy
5:51 AM 57.0 °F 55.0 °F 93% 30.20 in 6.0 mi Calm Calm - N/A   Partly Cloudy
6:51 AM 57.0 °F 54.0 °F 89% 30.21 in 6.0 mi Calm Calm - N/A   Partly Cloudy
7:51 AM 57.0 °F 55.0 °F 93% 30.22 in 8.0 mi North 3.5 mph - N/A   Scattered Clouds
8:51 AM 62.1 °F 57.9 °F 86% 30.23 in 10.0 mi NNE 4.6 mph - N/A   Mostly Cloudy
9:51 AM 64.9 °F 57.9 °F 78% 30.24 in 10.0 mi NNE 4.6 mph - N/A   Mostly Cloudy
10:51 AM 69.1 °F 59.0 °F 70% 30.23 in 10.0 mi NNE 6.9 mph - N/A   Mostly Cloudy
11:51 AM 72.0 °F 57.9 °F 61% 30.23 in 10.0 mi NE 9.2 mph - N/A   Mostly Cloudy
12:51 PM 73.9 °F 57.0 °F 55% 30.22 in 10.0 mi East 9.2 mph - N/A   Mostly Cloudy
1:51 PM 73.9 °F 57.0 °F 55% 30.20 in 10.0 mi ENE 6.9 mph - N/A   Mostly Cloudy
2:51 PM 75.0 °F 57.9 °F 55% 30.18 in 10.0 mi NE 6.9 mph - N/A   Mostly Cloudy
3:51 PM 75.9 °F 59.0 °F 56% 30.18 in 10.0 mi NE 8.1 mph - N/A   Mostly Cloudy
4:51 PM 73.9 °F 57.0 °F 55% 30.17 in 10.0 mi NE 8.1 mph - N/A   Mostly Cloudy
5:51 PM 73.0 °F 59.0 °F 61% 30.17 in 10.0 mi ENE 4.6 mph - N/A   Mostly Cloudy
6:51 PM 70.0 °F 60.1 °F 71% 30.17 in 10.0 mi ENE 5.8 mph - N/A   Mostly Cloudy
7:51 PM 64.9 °F 60.1 °F 84% 30.17 in 10.0 mi Calm Calm - N/A   Mostly Cloudy
8:51 PM 62.1 °F 59.0 °F 90% 30.18 in 10.0 mi Calm Calm - N/A   Scattered Clouds
9:51 PM 61.0 °F 57.9 °F 90% 30.20 in 10.0 mi Calm Calm - N/A   Scattered Clouds
10:51 PM 59.0 °F 57.0 °F 93% 30.20 in 10.0 mi Calm Calm - N/A   Scattered Clouds
11:51 PM 59.0 °F 57.0 °F 93% 30.20 in 6.0 mi Calm Calm - N/A   Partly Cloudy